FFT78 KLAS-MMSD

Flight info

Callsign FFT78
Flight time N/A
Altitude 37000
Route RASLR3 ZAYNE DRK J92 DASVU ENEKO ENEKO1B
Aircraft A321/M-VGDW/C

Departure

Time 2026-04-30 14:05
Airport Harry Reid International Airport (KLAS)

Arrival

Time N/A
Airport Los Cabos International Airport (MMSD)
Time Latitude Longitude Altitude Speed Heading
2026-04-30 13:26 36.08526 -115.13847 2085 ft 0 kts 359°
2026-04-30 13:37 36.08525 -115.13847 2085 ft 0 kts 359°
2026-04-30 13:50 36.08507 -115.13847 2085 ft 4 kts
2026-04-30 13:50 36.08481 -115.13844 2086 ft 4 kts 330°
2026-04-30 13:51 36.08466 -115.13823 2086 ft 4 kts 275°
2026-04-30 13:51 36.08466 -115.13810 2086 ft 1 kts 269°
2026-04-30 13:54 36.08465 -115.13857 2087 ft 11 kts 269°
2026-04-30 13:55 36.08465 -115.13947 2087 ft 10 kts 270°
2026-04-30 13:55 36.08454 -115.14033 2089 ft 10 kts 243°
2026-04-30 13:55 36.08423 -115.14079 2091 ft 5 kts 226°
2026-04-30 13:55 36.08388 -115.14122 2094 ft 10 kts 225°
2026-04-30 13:56 36.08353 -115.14165 2097 ft 4 kts 225°
2026-04-30 13:56 36.08337 -115.14185 2098 ft 6 kts 226°
2026-04-30 13:56 36.08290 -115.14234 2100 ft 8 kts 207°
2026-04-30 13:56 36.08227 -115.14242 2103 ft 13 kts 180°
2026-04-30 13:57 36.08142 -115.14242 2106 ft 10 kts 180°
2026-04-30 13:57 36.08076 -115.14242 2111 ft 12 kts 180°
2026-04-30 13:57 36.07994 -115.14241 2113 ft 10 kts 180°
2026-04-30 13:57 36.07937 -115.14241 2115 ft 9 kts 180°
2026-04-30 13:58 36.07871 -115.14242 2117 ft 8 kts 185°
2026-04-30 13:58 36.07829 -115.14378 2120 ft 12 kts 273°
2026-04-30 13:58 36.07836 -115.14494 2119 ft 19 kts 274°
2026-04-30 13:59 36.07848 -115.14682 2119 ft 22 kts 276°
2026-04-30 13:59 36.07860 -115.14854 2124 ft 18 kts 275°
2026-04-30 13:59 36.07869 -115.14998 2125 ft 17 kts 275°
2026-04-30 13:59 36.07877 -115.15164 2126 ft 19 kts 270°
2026-04-30 14:00 36.07877 -115.15320 2128 ft 17 kts 269°
2026-04-30 14:00 36.07876 -115.15608 2129 ft 18 kts 270°
2026-04-30 14:00 36.07876 -115.15712 2125 ft 18 kts 269°
2026-04-30 14:01 36.07876 -115.15866 2124 ft 17 kts 270°
2026-04-30 14:01 36.07876 -115.16017 2122 ft 18 kts 270°
2026-04-30 14:01 36.07876 -115.16166 2108 ft 13 kts 270°
2026-04-30 14:01 36.07866 -115.16260 2122 ft 10 kts 243°
2026-04-30 14:02 36.07813 -115.16303 2122 ft 10 kts 205°
2026-04-30 14:02 36.07751 -115.16339 2122 ft 9 kts 205°
2026-04-30 14:02 36.07672 -115.16385 2121 ft 14 kts 205°
2026-04-30 14:02 36.07588 -115.16431 2123 ft 12 kts 205°
2026-04-30 14:03 36.07527 -115.16467 2125 ft 8 kts 205°
2026-04-30 14:03 36.07487 -115.16490 2126 ft 4 kts 205°
2026-04-30 14:03 36.07436 -115.16519 2127 ft 11 kts 204°
2026-04-30 14:03 36.07388 -115.16577 2126 ft 10 kts 250°
2026-04-30 14:04 36.07408 -115.16673 2123 ft 12 kts 295°
2026-04-30 14:04 36.07453 -115.16733 2123 ft 8 kts
2026-04-30 14:04 36.07498 -115.16704 2123 ft 6 kts 26°
2026-04-30 14:04 36.07622 -115.16634 2127 ft 49 kts 25°
2026-04-30 14:05 36.08150 -115.16333 2121 ft 113 kts 25°
2026-04-30 14:05 36.09015 -115.15841 2128 ft 159 kts 25°
2026-04-30 14:05 36.10091 -115.15214 2471 ft 171 kts 25°
2026-04-30 14:05 36.11160 -115.14581 3140 ft 171 kts 25°
2026-04-30 14:06 36.12184 -115.13807 3686 ft 175 kts 44°
2026-04-30 14:06 36.12954 -115.10771 4235 ft 210 kts 82°
2026-04-30 14:07 36.13324 -115.06798 4624 ft 254 kts 81°
2026-04-30 14:07 36.13547 -115.04591 5185 ft 262 kts 81°
2026-04-30 14:07 36.13774 -115.02331 5937 ft 266 kts 81°
2026-04-30 14:08 36.14243 -114.97692 7363 ft 277 kts 81°
2026-04-30 14:08 36.14482 -114.95313 8103 ft 280 kts 82°
2026-04-30 14:08 36.14970 -114.90468 9567 ft 288 kts 81°
2026-04-30 14:09 36.15118 -114.87982 10232 ft 293 kts 91°
2026-04-30 14:09 36.14791 -114.85478 10881 ft 298 kts 105°
2026-04-30 14:09 36.13616 -114.80488 12264 ft 305 kts 105°
2026-04-30 14:10 36.12907 -114.77994 12931 ft 310 kts 115°
2026-04-30 14:10 36.11714 -114.75714 13583 ft 317 kts 130°
2026-04-30 14:10 36.10050 -114.73807 13762 ft 338 kts 146°
2026-04-30 14:10 36.07989 -114.72163 13893 ft 358 kts 148°
2026-04-30 14:11 36.05829 -114.70461 14024 ft 378 kts 148°
2026-04-30 14:11 36.03580 -114.68687 14410 ft 387 kts 148°
2026-04-30 14:11 36.01299 -114.66883 14935 ft 392 kts 148°
2026-04-30 14:11 35.98987 -114.65047 15434 ft 398 kts 148°
2026-04-30 14:12 35.96646 -114.63183 15934 ft 403 kts 148°
2026-04-30 14:12 35.94279 -114.61296 16442 ft 407 kts 148°
2026-04-30 14:12 35.91886 -114.59390 16948 ft 412 kts 148°
2026-04-30 14:12 35.90287 -114.58118 17279 ft 415 kts 148°
2026-04-30 14:13 35.87016 -114.55523 17916 ft 421 kts 148°
2026-04-30 14:13 35.84541 -114.53564 18319 ft 425 kts 148°
2026-04-30 14:13 35.82042 -114.51589 18745 ft 428 kts 148°
2026-04-30 14:13 35.79523 -114.49600 19160 ft 432 kts 148°
2026-04-30 14:14 35.76984 -114.47595 19592 ft 435 kts 148°
2026-04-30 14:14 35.74425 -114.45577 20015 ft 438 kts 148°
2026-04-30 14:14 35.71846 -114.43548 20436 ft 442 kts 148°
2026-04-30 14:14 35.69302 -114.41404 20862 ft 446 kts 142°
2026-04-30 14:15 35.66934 -114.38924 21289 ft 449 kts 139°
2026-04-30 14:15 35.64561 -114.36410 21658 ft 453 kts 140°
2026-04-30 14:15 35.62130 -114.33837 22072 ft 456 kts 140°
2026-04-30 14:15 35.59736 -114.31306 22541 ft 458 kts 140°
2026-04-30 14:16 35.57305 -114.28736 22958 ft 461 kts 140°
2026-04-30 14:16 35.54867 -114.26164 23394 ft 464 kts 140°
2026-04-30 14:16 35.52411 -114.23578 23721 ft 466 kts 140°
2026-04-30 14:16 35.49975 -114.21016 24109 ft 468 kts 140°
2026-04-30 14:17 35.47496 -114.18410 24504 ft 470 kts 140°
2026-04-30 14:17 35.45007 -114.15799 24893 ft 471 kts 140°
2026-04-30 14:17 35.42514 -114.13181 25289 ft 471 kts 140°
2026-04-30 14:17 35.40023 -114.10569 25728 ft 471 kts 140°
2026-04-30 14:18 35.37529 -114.07957 26116 ft 472 kts 141°
2026-04-30 14:18 35.35037 -114.05324 26434 ft 475 kts 139°
2026-04-30 14:18 35.30917 -113.98937 27024 ft 483 kts 120°
2026-04-30 14:19 35.28587 -113.91200 27624 ft 489 kts 104°
2026-04-30 14:19 35.27759 -113.87157 27919 ft 491 kts 104°
2026-04-30 14:19 35.26923 -113.83100 28189 ft 493 kts 105°
2026-04-30 14:20 35.26079 -113.79021 28441 ft 496 kts 106°
2026-04-30 14:20 35.25221 -113.74930 28694 ft 498 kts 106°
2026-04-30 14:20 35.23424 -113.66715 29240 ft 500 kts 111°
2026-04-30 14:21 35.22102 -113.62795 29572 ft 496 kts 120°
2026-04-30 14:21 35.20469 -113.59096 29934 ft 495 kts 122°
2026-04-30 14:21 35.17177 -113.51717 30511 ft 494 kts 122°
2026-04-30 14:22 35.15527 -113.48026 30818 ft 494 kts 123°
2026-04-30 14:22 35.12241 -113.40651 31405 ft 496 kts 123°
2026-04-30 14:22 35.10589 -113.36946 31636 ft 497 kts 124°
2026-04-30 14:23 35.07271 -113.29521 32227 ft 498 kts 124°
2026-04-30 14:23 35.03941 -113.22111 32875 ft 498 kts 125°
2026-04-30 14:24 35.00607 -113.14717 33498 ft 497 kts 126°
2026-04-30 14:24 34.98939 -113.11027 33795 ft 497 kts 126°
2026-04-30 14:25 34.95595 -113.03633 34250 ft 499 kts 126°
2026-04-30 14:25 34.92250 -112.96237 34806 ft 498 kts 126°
2026-04-30 14:26 34.88903 -112.88854 35328 ft 497 kts 127°
2026-04-30 14:26 34.87232 -112.85179 35609 ft 496 kts 127°
2026-04-30 14:26 34.83895 -112.77833 36118 ft 495 kts 127°
2026-04-30 14:27 34.82222 -112.74160 36279 ft 497 kts 127°
2026-04-30 14:27 34.80542 -112.70481 36477 ft 497 kts 127°
2026-04-30 14:27 34.78861 -112.66804 36694 ft 497 kts 127°
2026-04-30 14:28 34.75501 -112.59465 36916 ft 496 kts 128°
2026-04-30 14:28 34.73811 -112.55816 36921 ft 493 kts 130°
2026-04-30 14:28 34.71850 -112.52472 36921 ft 480 kts 140°
2026-04-30 14:28 34.69534 -112.49641 37093 ft 466 kts 150°
2026-04-30 14:29 34.64192 -112.45625 37088 ft 441 kts 168°
2026-04-30 14:29 34.59423 -112.43623 37082 ft 436 kts 172°
2026-04-30 14:31 34.44057 -112.37368 36900 ft 436 kts 172°
2026-04-30 14:31 34.35430 -112.33879 36871 ft 436 kts 172°
2026-04-30 14:32 34.26845 -112.30405 36883 ft 435 kts 172°
2026-04-30 14:33 34.21095 -112.28089 36875 ft 436 kts 172°
2026-04-30 14:33 34.12476 -112.24619 36860 ft 435 kts 171°
2026-04-30 14:34 34.07663 -112.22679 36868 ft 435 kts 172°
2026-04-30 14:34 34.01919 -112.20368 36870 ft 435 kts 172°
2026-04-30 14:35 33.93309 -112.16919 36877 ft 435 kts 172°
2026-04-30 14:36 33.87604 -112.14647 36869 ft 434 kts 172°
2026-04-30 14:36 33.81869 -112.12350 36866 ft 435 kts 172°
2026-04-30 14:37 33.76124 -112.10052 36851 ft 435 kts 172°
2026-04-30 14:37 33.70377 -112.07766 36902 ft 435 kts 172°
2026-04-30 14:38 33.64629 -112.05485 36911 ft 435 kts 171°
2026-04-30 14:38 33.58874 -112.03195 36924 ft 436 kts 172°
2026-04-30 14:39 33.53113 -112.00911 36905 ft 436 kts 171°
2026-04-30 14:39 33.47349 -111.98627 36881 ft 436 kts 171°
2026-04-30 14:40 33.41554 -111.96811 36889 ft 421 kts 183°
2026-04-30 14:40 33.38645 -111.96477 36894 ft 420 kts 184°
2026-04-30 14:40 33.32823 -111.95836 36895 ft 420 kts 184°
2026-04-30 14:41 33.27000 -111.95185 36917 ft 421 kts 184°
2026-04-30 14:41 33.21171 -111.94531 36894 ft 421 kts 183°
2026-04-30 14:42 33.15338 -111.93868 36895 ft 421 kts 183°
2026-04-30 14:42 33.09500 -111.93210 36895 ft 421 kts 183°
2026-04-30 14:43 33.03660 -111.92558 36927 ft 422 kts 183°
2026-04-30 14:43 32.97818 -111.91903 36911 ft 422 kts 183°
2026-04-30 14:44 32.91979 -111.91227 36927 ft 424 kts 180°
2026-04-30 14:44 32.89070 -111.90405 36930 ft 437 kts 169°
2026-04-30 14:44 32.86263 -111.88891 36930 ft 451 kts 158°
2026-04-30 14:45 32.81027 -111.84618 36925 ft 457 kts 154°
2026-04-30 14:45 32.75812 -111.80280 36892 ft 458 kts 155°
2026-04-30 14:46 32.70585 -111.75963 36881 ft 458 kts 156°
2026-04-30 14:46 32.65341 -111.71651 36869 ft 459 kts 156°
2026-04-30 14:47 32.60094 -111.67327 36859 ft 459 kts 156°
2026-04-30 14:47 32.54843 -111.63004 36831 ft 460 kts 156°
2026-04-30 14:48 32.49593 -111.58689 36849 ft 459 kts 156°
2026-04-30 14:48 32.44343 -111.54381 36945 ft 459 kts 156°
2026-04-30 14:49 32.39231 -111.49784 36950 ft 474 kts 145°
2026-04-30 14:49 32.37071 -111.46765 36950 ft 489 kts 134°
2026-04-30 14:49 32.35259 -111.43241 36950 ft 496 kts 130°
2026-04-30 14:50 32.30049 -111.32674 36915 ft 496 kts 130°
2026-04-30 14:51 32.24807 -111.22129 36967 ft 496 kts 130°
2026-04-30 14:52 32.19564 -111.11591 36970 ft 496 kts 130°
2026-04-30 14:52 32.14273 -111.01092 36970 ft 492 kts 135°
2026-04-30 14:53 32.09634 -110.95604 36974 ft 458 kts 158°
2026-04-30 14:53 32.06914 -110.93804 36976 ft 441 kts 168°
2026-04-30 14:54 32.01200 -110.92052 36967 ft 413 kts 187°
2026-04-30 14:54 31.95572 -110.92145 36943 ft 403 kts 193°
2026-04-30 14:55 31.87140 -110.92536 36897 ft 405 kts 193°
2026-04-30 14:56 31.75832 -110.93043 36848 ft 408 kts 193°
2026-04-30 14:57 31.67367 -110.93424 36849 ft 408 kts 193°
2026-04-30 14:58 31.56016 -110.93949 36980 ft 408 kts 193°
2026-04-30 14:58 31.47496 -110.94346 37024 ft 409 kts 193°
2026-04-30 15:00 31.33256 -110.94994 36993 ft 411 kts 193°
2026-04-30 15:01 31.21822 -110.95516 36947 ft 412 kts 193°
2026-04-30 15:01 31.13237 -110.95906 36903 ft 412 kts 193°
2026-04-30 15:02 31.07518 -110.96164 36839 ft 411 kts 193°
2026-04-30 15:03 30.93188 -110.96829 36859 ft 411 kts 193°
2026-04-30 15:04 30.78917 -110.97473 36874 ft 411 kts 192°
2026-04-30 15:06 30.64662 -110.98176 36887 ft 409 kts 192°
2026-04-30 15:07 30.53318 -110.98720 36886 ft 407 kts 192°
2026-04-30 15:08 30.41993 -110.99258 36891 ft 405 kts 192°
2026-04-30 15:09 30.27912 -110.99885 36877 ft 404 kts 192°
2026-04-30 15:10 30.16661 -111.00404 36892 ft 405 kts 192°
2026-04-30 15:11 30.00735 -111.01107 36879 ft 404 kts 192°
2026-04-30 15:13 29.86637 -111.01758 36887 ft 405 kts 192°
2026-04-30 15:14 29.66941 -111.02638 36886 ft 405 kts 192°
2026-04-30 15:17 29.41566 -111.03775 36894 ft 405 kts 192°
2026-04-30 15:19 29.18951 -111.04783 36924 ft 406 kts 192°